Regional Weather Roundup
Issued by NWS

Home | Current Version | Previous Version | Text Only | Print | Product List | Glossary Off
Versions: 1 2 3 4 5 6 7 8 9 10 11 12 13 14 15 16 17 18 19 20 21 22 23 24 25 26 27 28 29 30 31 32 33 34 35 36 37 38 39 40 41 42 43 44 45 46 47 48 49 50

000
ASUS43 KMKX 251900
RWRWI

WISCONSIN REGIONAL WEATHER ROUNDUP
NATIONAL WEATHER SERVICE MILWAUKEE/SULLIVAN WI
200 PM CDT SAT MAR 25 2017

NOTE: "FAIR" INDICATES FEW OR NO CLOUDS BELOW 12,000 FEET WITH NO
SIGNIFICANT WEATHER AND/OR OBSTRUCTIONS TO VISIBILITY.

WIZ001-002-006>008-014>016-023>028-252000-
NORTHWEST WISCONSIN

CITY           SKY/WX    TMP DP  RH WIND       PRES   REMARKS
SUPERIOR ARPT  CLOUDY    35  31  85 E12G26    30.26S WCI  27
ASHLAND        CLOUDY    36  30  79 NE14      30.26F WCI  27
HAYWARD        CLOUDY    41  29  62 E9        30.19F
SIREN          CLOUDY    41  30  64 E9        30.18F
CUMBERLAND     CLOUDY    37  30  75 E10G18    30.17F WCI  30
RICE LAKE      CLOUDY    40  31  72 CALM      30.19F
CHETEK         CLOUDY    39  32  75 E6        30.18F WCI  35
LADYSMITH      CLOUDY    39  32  75 NE9G18    30.20F WCI  33
EAU CLAIRE     NOT AVBL
MENOMONIE      CLOUDY    41  33  74 NE15      30.16F
NEW RICHMOND   CLOUDY    39  32  75 NE12      30.16F WCI  32
OSCEOLA        CLOUDY    40  32  74 NE9       30.20F WCI  34
$$

WIZ003>005-009-010-017-018-252000-
NORTH CENTRAL WISCONSIN

CITY           SKY/WX    TMP DP  RH WIND       PRES   REMARKS
MANITOWISH WTR CLOUDY    35  32  90 E10       30.21F WCI  27
ARBOR VITAE    CLOUDY    37  31  81 SE10G16   30.21S WCI  29
WOODRUFF       CLOUDY    37  31  81 SE10G16   30.21S WCI  29
RHINELANDER    CLOUDY    37  31  78 E16       30.20F WCI  28
EAGLE RIVER    CLOUDY    36  29  76 E10       30.22S WCI  28
LAND O LAKES   CLOUDY    35  31  84 SE12G17   30.24S WCI  27
PHILLIPS       CLOUDY    36  31  82 E9G17     30.20F WCI  29
TOMAHAWK       CLOUDY    37  30  78 E8G16     30.20F WCI  30
MEDFORD        CLOUDY    37  32  84 E14G21    30.15F WCI  28
MERRILL        CLOUDY    37  32  81 E13       30.19F WCI  29
$$

WIZ029-030-035-036-043>047-252000-
CENTRAL WISCONSIN

CITY           SKY/WX    TMP DP  RH WIND       PRES   REMARKS
WAUSAU         CLOUDY    39  32  76 E12       30.14F WCI  32
MOSINEE        CLOUDY    37  34  87 E15G25    30.16F WCI  28
MARSHFIELD     CLOUDY    38  32  79 E22G28    30.12F WCI  27
STEVENS POINT  CLOUDY    36  32  85 E17G25    30.16F WCI  26
WAUPACA        CLOUDY    39  34  80 NE14G22   30.16F WCI  31
WAUTOMA        CLOUDY    37  34  89 NE17G25   30.13  WCI  27
WISC RAPIDS    CLOUDY    39  34  82 E16G29    30.14F WCI  30
CAMP DOUGLAS   NOT AVBL
$$

WIZ011>013-019>022-031-037>040-048>050-252000-
NORTHEAST WISCONSIN

CITY           SKY/WX    TMP DP  RH WIND       PRES   REMARKS
ANTIGO         CLOUDY    36  32  84 E17       30.19F WCI  26
SHAWANO        CLOUDY    39  33  80 E17       30.21F WCI  29
OCONTO         CLOUDY    36  32  84 NE14      30.24F WCI  27
STURGEON BAY   CLOUDY    37  32  82 NE10G25   30.23F WCI  30
GREEN BAY      CLOUDY    37  36  96 NE18      30.19F WCI  27
MANITOWOC      NOT AVBL
APPLETON       CLOUDY    37  34  87 NE17G25   30.14F WCI  28
CLINTONVILLE   CLOUDY    37  32  81 E18G26    30.19F WCI  27
OSHKOSH        CLOUDY    37  34  89 NE14      30.14F WCI  28
$$

WIZ032>034-041-042-053>061-252000-
SOUTHWEST WISCONSIN

CITY           SKY/WX    TMP DP  RH WIND       PRES   REMARKS
LA CROSSE      CLOUDY    41  35  79 NE12G20   30.08F
SPARTA         CLOUDY    38  35  88 E15       30.11F WCI  30
VIROQUA        CLOUDY    37  36  99 NE17      30.05F WCI  27
BOSCOBEL       LGT RAIN  41  37  86 NE9G18    30.04F
PRAIRIE DU CHI LGT RAIN  40  37  89 NE8G16    30.02F WCI  35
PLATTEVILLE    CLOUDY    40  40 100 NE23      29.99S WCI  30
$$

WIZ056-057-062-063-064-067-068-252000-
SOUTH CENTRAL WISCONSIN

CITY           SKY/WX    TMP DP  RH WIND       PRES   REMARKS
REEDSBURG      CLOUDY    37  37 100 NE16G26   30.08F WCI  27
BARABOO/DELLS  CLOUDY    37  35  94 NE18G24   30.08F WCI  27
LONE ROCK      LGT RAIN  40  36  86 E17G25    30.07S FOG     WCI  31
MINERAL POINT  RAIN      39  39 100 E15G21    30.02R WCI  31
MADISON        RAIN      39  37  92 E17G24    30.07F FOG     WCI  30
MIDDLETON      CLOUDY    40  38  95 E18G25    30.07S WCI  30
WATERTOWN      CLOUDY    38  38 100 E13G22    30.09S WCI  30
MONROE         CLOUDY    37  37 100 NE17      30.01F WCI  28
JANESVILLE     DRIZZLE   41  41 100 E17       30.03F
$$

WIZ051-052-058>065-066-070>072-252000-
SOUTHEAST WISCONSIN

CITY           SKY/WX    TMP DP  RH WIND       PRES   REMARKS
MILWAUKEE      LGT RAIN  39  36  89 NE14      30.11S FOG     WCI  31
WAUKESHA       LGT RAIN  36  36 100 E16G25    30.09F WCI  26
MILWAUKEE/TIMM LGT RAIN  37  34  87 NE15G21   30.11F WCI  28
RACINE         LGT RAIN  39  36  89 NE15      30.09F WCI  31
KENOSHA        LGT RAIN  39  37  92 NE21G26   30.06F FOG     WCI  29
FOND DU LAC    CLOUDY    39  33  79 E16G26    30.13F WCI  30
SHEBOYGAN      CLOUDY    37  34  89 NE20      30.15F WCI  27
WEST BEND      CLOUDY    37  36  93 NE17G25   30.12F WCI  28
JUNEAU         LGT RAIN  37  36  94 NE15      30.12R WCI  28
$$

LSZ147-162-252000-
LAKE SUPERIOR

STATION/POSITION TIME  TEMP    WIND        PRES    WAVE
                       AIR SEA DIR/SP/G            HT/PER
                 (UTC) (F)     (DEG/KT/KT) (MB)    (FT/S)
DEVILS ISLAND    1800   33      70/ 22/ 25 1027.1F
PORT WING        1840   34      40/ 22/ 26 1024.7F
SAXON HARBOR     1830   34      40/ 14/ 16 1024.4F
$$

LMZ867-665-643>646-252000-
LAKE MICHIGAN

STATION/POSITION TIME  TEMP    WIND        PRES    WAVE
                       AIR SEA DIR/SP/G            HT/PER
                 (UTC) (F)     (DEG/KT/KT) (MB)    (FT/S)
CHAMBERS ISLAND  1840   34      40/ 15/ 21 1024.7F
NORTHPORT PIER   1840   34      60/ 17/ 21 1025.1F
SISTER BAY       1835   38      90/ 13/ 21   N/A
KEWAUNEE LAKESHO 1830   36      60/ 12/ 20 1022.5F
SHEBOYGAN LAKESH 1800   37      30/ 19/ 20 1022.0F
PORT WASHINGTON  1840   38      40/ 14/ 20 1021.7F
MILWAUKEE LAKESH 1830   37      30/ 17/ 19   N/A
KENOSHA   LAKESH 1800   38      40/ 12/ 16 1019.3
$$

TC  - TEMPERATURE IN CELSIUS
VSB - VISIBILITY IN STATUTE MILES
WCI - WIND CHILL INDEX
HX  - HEAT INDEX





USA.gov is the U.S. government's official web portal to all federal, state and local government web resources and services.